| time (UTC) | temp F | wind direction | speed MPH | gust MPH | rain 1hr in | rain 24hr in | rain mn in | humidity % | barometer mb |
| 20260505223039 | 43 | 289 | 4.0 | 11.0 | 0.00 | 0.00 | 0.00 | 45 | 1017.2 |
| 20260505223008 | 43 | 284 | 4.0 | 11.0 | 0.00 | 0.00 | 0.00 | 46 | 1011.4 |
| 20260505221539 | 44 | 290 | 3.0 | 10.0 | 0.00 | 0.00 | 0.00 | 46 | 1017.2 |
| 20260505221507 | 44 | 327 | 3.0 | 10.0 | 0.00 | 0.00 | 0.00 | 45 | 1011.5 |
| 20260505220054 | 44 | 309 | 5.0 | 14.0 | 0.00 | 0.00 | 0.00 | 46 | 1017.3 |
| 20260505220005 | 44 | 321 | 4.0 | 14.0 | 0.00 | 0.00 | 0.00 | 47 | 1011.4 |
| 20260505214544 | 43 | 329 | 3.0 | 9.0 | 0.00 | 0.00 | 0.00 | 46 | 1017.3 |
| 20260505214505 | 43 | 332 | 3.0 | 9.0 | 0.00 | 0.00 | 0.00 | 47 | 1011.5 |
| 20260505213039 | 43 | 313 | 6.0 | 14.0 | 0.00 | 0.00 | 0.00 | 46 | 1017.3 |
| 20260505213008 | 43 | 312 | 6.0 | 14.0 | 0.00 | 0.00 | 0.00 | 46 | 1011.5 |
| 20260505211547 | 43 | 343 | 6.0 | 14.0 | 0.00 | 0.00 | 0.00 | 46 | 1017.4 |
| 20260505211505 | 43 | 264 | 6.0 | 14.0 | 0.00 | 0.00 | 0.00 | 46 | 1011.5 |
| 20260505210039 | 43 | 283 | 7.0 | 18.0 | 0.00 | 0.00 | 0.00 | 46 | 1017.4 |
| 20260505210001 | 43 | 269 | 7.0 | 18.0 | 0.00 | 0.00 | 0.00 | 45 | 1011.2 |
| 20260505204600 | 43 | 293 | 7.0 | 15.0 | 0.00 | 0.00 | 0.00 | 45 | 1011.3 |
| 20260505204539 | 43 | 271 | 7.0 | 21.0 | 0.00 | 0.00 | 0.00 | 45 | 1017.4 |
| 20260505203058 | 43 | 304 | 10.0 | 17.0 | 0.00 | 0.00 | 0.00 | 46 | 1011.2 |
| 20260505203043 | 43 | 256 | 9.0 | 17.0 | 0.00 | 0.00 | 0.00 | 45 | 1017.6 |
| 20260505201558 | 43 | 252 | 7.0 | 17.0 | 0.00 | 0.00 | 0.00 | 46 | 1011.1 |
| 20260505201542 | 43 | 292 | 8.0 | 17.0 | 0.00 | 0.00 | 0.00 | 45 | 1017.4 |
| 20260505200039 | 43 | 302 | 9.0 | 19.0 | 0.00 | 0.00 | 0.00 | 45 | 1017.5 |
| 20260505194556 | 43 | 246 | 7.0 | 15.0 | 0.00 | 0.00 | 0.00 | 46 | 1010.9 |
| 20260505194544 | 43 | 288 | 6.0 | 15.0 | 0.00 | 0.00 | 0.00 | 47 | 1017.3 |
| 20260505193051 | 43 | 254 | 5.0 | 15.0 | 0.00 | 0.00 | 0.00 | 48 | 1010.8 |
| 20260505193044 | 43 | 236 | 6.0 | 15.0 | 0.00 | 0.00 | 0.00 | 48 | 1017.2 |
| 20260505191550 | 43 | 319 | 6.0 | 18.0 | 0.00 | 0.00 | 0.00 | 49 | 1010.8 |
| 20260505190047 | 43 | 255 | 8.0 | 17.0 | 0.00 | 0.00 | 0.00 | 46 | 1010.5 |
| 20260505190040 | 44 | 270 | 6.0 | 18.0 | 0.00 | 0.00 | 0.00 | 45 | 1016.9 |
| 20260505184544 | 43 | 270 | 9.0 | 24.0 | 0.00 | 0.00 | 0.00 | 47 | 1010.5 |
| 20260505183053 | 43 | 311 | 7.0 | 17.0 | 0.00 | 0.00 | 0.00 | 47 | 1010.3 |
| 20260505183038 | 43 | 290 | 8.0 | 17.0 | 0.00 | 0.00 | 0.00 | 47 | 1016.6 |
| 20260505181540 | 42 | 273 | 8.0 | 21.0 | 0.00 | 0.00 | 0.00 | 48 | 1010.2 |
| 20260505181538 | 42 | 254 | 7.0 | 18.0 | 0.00 | 0.00 | 0.00 | 47 | 1016.6 |
| 20260505180047 | 43 | 297 | 9.0 | 24.0 | 0.00 | 0.00 | 0.00 | 46 | 1016.6 |
| 20260505180042 | 43 | 301 | 11.0 | 24.0 | 0.00 | 0.00 | 0.00 | 47 | 1010.0 |
| 20260505174544 | 43 | 336 | 7.0 | 17.0 | 0.00 | 0.00 | 0.00 | 45 | 1009.9 |
| 20260505173039 | 42 | 271 | 7.0 | 19.0 | 0.00 | 0.00 | 0.00 | 48 | 1016.1 |
| 20260505173033 | 42 | 281 | 6.0 | 16.0 | 0.00 | 0.00 | 0.00 | 48 | 1009.7 |
| 20260505171539 | 42 | 301 | 9.0 | 19.0 | 0.00 | 0.00 | 0.00 | 45 | 1016.2 |
| 20260505171533 | 42 | 267 | 9.0 | 16.0 | 0.00 | 0.00 | 0.00 | 45 | 1009.7 |
| 20260505170048 | 42 | 300 | 9.0 | 26.0 | 0.00 | 0.00 | 0.00 | 45 | 1016.3 |
| 20260505170034 | 42 | 344 | 11.0 | 25.0 | 0.00 | 0.00 | 0.00 | 46 | 1009.7 |
| 20260505164540 | 42 | 236 | 8.0 | 21.0 | 0.00 | 0.00 | 0.00 | 44 | 1016.1 |
| 20260505164534 | 42 | 227 | 8.0 | 21.0 | 0.00 | 0.00 | 0.00 | 45 | 1009.4 |
| 20260505163045 | 42 | 319 | 9.0 | 19.0 | 0.00 | 0.00 | 0.00 | 47 | 1016.0 |
| 20260505163031 | 42 | 319 | 9.0 | 17.0 | 0.00 | 0.00 | 0.00 | 47 | 1009.3 |
| 20260505161548 | 41 | 278 | 9.0 | 20.0 | 0.00 | 0.00 | 0.00 | 46 | 1015.9 |
| 20260505161529 | 41 | 290 | 9.0 | 20.0 | 0.00 | 0.00 | 0.00 | 47 | 1009.2 |
| 20260505153051 | 41 | 263 | 7.0 | 19.0 | 0.00 | 0.00 | 0.00 | 46 | 1015.5 |
| 20260505153024 | 41 | 263 | 5.0 | 19.0 | 0.00 | 0.00 | 0.00 | 46 | 1008.7 |
| 20260505151545 | 42 | 308 | 7.0 | 15.0 | 0.00 | 0.00 | 0.00 | 48 | 1015.5 |
| 20260505151521 | 42 | 308 | 7.0 | 15.0 | 0.00 | 0.00 | 0.00 | 49 | 1008.7 |
| 20260505124607 | 37 | 288 | 6.0 | 14.0 | 0.00 | 0.00 | 0.00 | 64 | 1007.5 |
| 20260505124542 | 37 | 262 | 5.0 | 15.0 | 0.00 | 0.00 | 0.00 | 65 | 1014.4 |
| 20260505123058 | 36 | 244 | 7.0 | 19.0 | 0.00 | 0.00 | 0.00 | 65 | 1014.3 |
| 20260505123056 | 36 | 295 | 6.0 | 19.0 | 0.00 | 0.00 | 0.00 | 66 | 1007.2 |
| 20260505121550 | 35 | 285 | 4.0 | 12.0 | 0.00 | 0.00 | 0.00 | 66 | 1007.2 |
| 20260505121536 | 35 | 258 | 2.0 | 11.0 | 0.00 | 0.00 | 0.00 | 66 | 1014.2 |
| 20260505120051 | 35 | 275 | 2.0 | 10.0 | 0.00 | 0.00 | 0.00 | 68 | 1007.0 |
| 20260505120042 | 35 | 275 | 3.0 | 10.0 | 0.00 | 0.00 | 0.00 | 67 | 1014.0 |
| 20260505114556 | 34 | 269 | 2.0 | 10.0 | 0.00 | 0.00 | 0.00 | 69 | 1013.8 |
| 20260505114550 | 34 | 266 | 2.0 | 10.0 | 0.00 | 0.00 | 0.00 | 70 | 1006.7 |
| 20260505113040 | 34 | 0 | 1.0 | 8.0 | 0.00 | 0.00 | 0.00 | 70 | 1013.6 |
| 20260505111554 | 33 | 277 | 1.0 | 11.0 | 0.00 | 0.00 | 0.00 | 70 | 1013.5 |
| 20260505111539 | 33 | 277 | 1.0 | 11.0 | 0.00 | 0.00 | 0.00 | 71 | 1006.2 |
| 20260505101541 | 34 | 267 | 1.0 | 7.0 | 0.00 | 0.00 | 0.00 | 69 | 1012.8 |
| 20260505100036 | 34 | 261 | 0.0 | 9.0 | 0.00 | 0.00 | 0.00 | 69 | 1012.6 |
| 20260505100027 | 34 | 261 | 0.0 | 9.0 | 0.00 | 0.00 | 0.00 | 69 | 1005.4 |
| 20260505094539 | 35 | 0 | 2.0 | 8.0 | 0.00 | 0.00 | 0.00 | 68 | 1012.7 |
| 20260505094534 | 35 | 261 | 2.0 | 8.0 | 0.00 | 0.00 | 0.00 | 69 | 1005.4 |
| 20260505093043 | 34 | 275 | 0.0 | 6.0 | 0.00 | 0.00 | 0.00 | 68 | 1012.3 |
| 20260505093024 | 34 | 275 | 1.0 | 6.0 | 0.00 | 0.00 | 0.00 | 68 | 1005.0 |
| 20260505091537 | 35 | 0 | 0.0 | 4.0 | 0.00 | 0.00 | 0.00 | 67 | 1012.0 |
| 20260505091522 | 35 | 292 | 0.0 | 4.0 | 0.00 | 0.00 | 0.00 | 67 | 1004.7 |
| 20260505090050 | 35 | 292 | 1.0 | 5.0 | 0.00 | 0.00 | 0.00 | 66 | 1011.9 |
| 20260505090021 | 35 | 292 | 1.0 | 5.0 | 0.00 | 0.00 | 0.00 | 66 | 1004.6 |
| 20260505084540 | 35 | 294 | 1.0 | 7.0 | 0.00 | 0.00 | 0.00 | 66 | 1011.7 |
| 20260505084517 | 35 | 294 | 2.0 | 7.0 | 0.00 | 0.00 | 0.00 | 66 | 1004.5 |
| 20260505083045 | 35 | 0 | 0.0 | 3.0 | 0.00 | 0.00 | 0.00 | 65 | 1011.5 |
| 20260505083021 | 35 | 294 | 0.0 | 3.0 | 0.00 | 0.00 | 0.00 | 65 | 1004.2 |
| 20260505081545 | 36 | 0 | 1.0 | 5.0 | 0.00 | 0.00 | 0.00 | 64 | 1011.4 |
| 20260505081515 | 36 | 296 | 1.0 | 5.0 | 0.00 | 0.00 | 0.00 | 65 | 1004.2 |
| 20260505080042 | 35 | 0 | 0.0 | 5.0 | 0.00 | 0.00 | 0.00 | 64 | 1011.6 |
| 20260505080016 | 35 | 297 | 0.0 | 3.0 | 0.00 | 0.00 | 0.00 | 65 | 1004.2 |
| 20260505074543 | 36 | 0 | 0.0 | 4.0 | 0.00 | 0.00 | 0.00 | 63 | 1011.6 |
| 20260505074512 | 36 | 284 | 0.0 | 4.0 | 0.00 | 0.00 | 0.00 | 64 | 1004.4 |
| 20260505073038 | 36 | 0 | 0.0 | 3.0 | 0.00 | 0.00 | 0.00 | 63 | 1011.6 |
| 20260505073009 | 36 | 284 | 0.0 | 3.0 | 0.00 | 0.00 | 0.00 | 63 | 1004.3 |
| 20260505071539 | 36 | 0 | 0.0 | 2.0 | 0.00 | 0.00 | 0.00 | 63 | 1011.7 |
| 20260505071525 | 36 | 284 | 0.0 | 2.0 | 0.00 | 0.00 | 0.00 | 63 | 1004.3 |
| 20260505070045 | 36 | 0 | 0.0 | 3.0 | 0.00 | 0.00 | 0.00 | 63 | 1011.7 |
| 20260505070008 | 36 | 284 | 0.0 | 3.0 | 0.00 | 0.00 | 0.00 | 64 | 1004.3 |
| 20260505064552 | 35 | 0 | 0.0 | 2.0 | 0.00 | 0.00 | 0.00 | 64 | 1011.7 |
| 20260505064508 | 35 | 285 | 0.0 | 2.0 | 0.00 | 0.00 | 0.00 | 64 | 1004.3 |
| 20260505063046 | 36 | 0 | 0.0 | 0.0 | 0.00 | 0.00 | 0.00 | 63 | 1011.8 |
| 20260505063002 | 36 | 285 | 0.0 | 0.0 | 0.00 | 0.00 | 0.00 | 63 | 1004.3 |
| 20260505061600 | 37 | 285 | 0.0 | 2.0 | 0.00 | 0.00 | 0.00 | 59 | 1004.5 |
| 20260505061542 | 37 | 0 | 0.0 | 2.0 | 0.00 | 0.00 | 0.00 | 58 | 1011.9 |
| 20260505060057 | 38 | 284 | 0.0 | 0.0 | 0.00 | 0.00 | 0.00 | 58 | 1004.6 |
| 20260505060039 | 38 | 0 | 0.0 | 0.0 | 0.00 | 0.00 | 0.00 | 57 | 1012.0 |
| 20260505054555 | 38 | 284 | 0.0 | 3.0 | 0.00 | 0.00 | 0.00 | 56 | 1004.4 |
| 20260505054537 | 38 | 284 | 0.0 | 3.0 | 0.00 | 0.00 | 0.00 | 56 | 1011.9 |
| 20260505053052 | 39 | 285 | 0.0 | 7.0 | 0.00 | 0.00 | 0.00 | 54 | 1004.2 |
| 20260505053035 | 39 | 285 | 1.0 | 8.0 | 0.00 | 0.00 | 0.00 | 54 | 1011.7 |
| 20260505051559 | 40 | 292 | 4.0 | 12.0 | 0.00 | 0.00 | 0.00 | 54 | 1003.9 |
| 20260505051542 | 40 | 292 | 2.0 | 12.0 | 0.00 | 0.00 | 0.00 | 53 | 1011.5 |
| 20260505041540 | 42 | 282 | 6.0 | 17.0 | 0.00 | 0.00 | 0.00 | 50 | 1003.8 |
| 20260505041537 | 42 | 314 | 6.0 | 17.0 | 0.00 | 0.00 | 0.00 | 50 | 1011.4 |
| 20260505040041 | 42 | 306 | 3.0 | 12.0 | 0.00 | 0.00 | 0.00 | 50 | 1011.4 |
| 20260505040038 | 42 | 319 | 3.0 | 12.0 | 0.00 | 0.00 | 0.00 | 50 | 1003.7 |
| 20260505034542 | 43 | 306 | 6.0 | 16.0 | 0.00 | 0.00 | 0.00 | 49 | 1011.2 |
| 20260505034535 | 43 | 306 | 6.0 | 16.0 | 0.00 | 0.00 | 0.00 | 49 | 1003.6 |
| 20260505033038 | 43 | 315 | 3.0 | 15.0 | 0.00 | 0.00 | 0.00 | 50 | 1010.9 |
| 20260505033032 | 43 | 315 | 3.0 | 15.0 | 0.00 | 0.00 | 0.00 | 50 | 1003.5 |
| 20260505031536 | 44 | 333 | 6.0 | 20.0 | 0.00 | 0.00 | 0.00 | 50 | 1010.8 |
| 20260505031531 | 44 | 334 | 7.0 | 17.0 | 0.00 | 0.00 | 0.00 | 51 | 1003.3 |
| 20260505030042 | 44 | 343 | 8.0 | 22.0 | 0.00 | 0.00 | 0.00 | 51 | 1010.7 |
| 20260505030028 | 44 | 337 | 7.0 | 22.0 | 0.00 | 0.00 | 0.00 | 51 | 1003.2 |
| 20260505024545 | 44 | 277 | 5.0 | 17.0 | 0.00 | 0.00 | 0.00 | 51 | 1010.5 |
| 20260505024524 | 44 | 277 | 6.0 | 16.0 | 0.00 | 0.00 | 0.00 | 52 | 1003.0 |
| 20260505023046 | 45 | 290 | 5.0 | 17.0 | 0.00 | 0.00 | 0.00 | 51 | 1010.3 |
| 20260505023024 | 45 | 292 | 7.0 | 17.0 | 0.00 | 0.00 | 0.00 | 51 | 1002.8 |
| 20260505021544 | 45 | 298 | 6.0 | 19.0 | 0.00 | 0.00 | 0.00 | 50 | 1010.0 |
| 20260505021527 | 45 | 298 | 6.0 | 19.0 | 0.00 | 0.00 | 0.00 | 51 | 1002.4 |
| 20260505020037 | 46 | 296 | 9.0 | 17.0 | 0.00 | 0.00 | 0.00 | 49 | 1009.8 |
| 20260505020016 | 46 | 303 | 10.0 | 17.0 | 0.00 | 0.00 | 0.00 | 50 | 1002.1 |
| 20260505014542 | 47 | 298 | 5.0 | 16.0 | 0.00 | 0.00 | 0.00 | 46 | 1009.4 |
| 20260505014516 | 47 | 298 | 6.0 | 14.0 | 0.00 | 0.00 | 0.00 | 47 | 1001.7 |
| 20260505013043 | 48 | 307 | 7.0 | 23.0 | 0.00 | 0.00 | 0.00 | 44 | 1009.2 |
| 20260505013014 | 48 | 303 | 8.0 | 23.0 | 0.00 | 0.00 | 0.00 | 45 | 1001.4 |
| 20260505011539 | 48 | 318 | 3.0 | 16.0 | 0.00 | 0.00 | 0.00 | 45 | 1009.0 |
| 20260505011513 | 48 | 319 | 3.0 | 15.0 | 0.00 | 0.00 | 0.00 | 46 | 1001.1 |
| 20260505010045 | 49 | 352 | 8.0 | 21.0 | 0.00 | 0.00 | 0.00 | 44 | 1008.5 |
| 20260505010010 | 49 | 318 | 8.0 | 21.0 | 0.00 | 0.00 | 0.00 | 45 | 1000.7 |
| 20260505004539 | 51 | 296 | 8.0 | 17.0 | 0.00 | 0.00 | 0.00 | 41 | 1008.1 |
| 20260505004516 | 51 | 242 | 7.0 | 17.0 | 0.00 | 0.00 | 0.00 | 42 | 1000.3 |
| 20260505003037 | 52 | 331 | 6.0 | 14.0 | 0.00 | 0.00 | 0.00 | 41 | 1007.8 |
| 20260505003009 | 52 | 331 | 6.0 | 14.0 | 0.00 | 0.00 | 0.00 | 42 | 1000.1 |
| 20260505001547 | 52 | 312 | 7.0 | 20.0 | 0.00 | 0.00 | 0.00 | 42 | 1007.6 |
| 20260505001509 | 52 | 309 | 7.0 | 20.0 | 0.00 | 0.00 | 0.00 | 42 | 999.8 |
| 20260505000041 | 53 | 284 | 7.0 | 20.0 | 0.00 | 0.00 | 0.00 | 42 | 1007.4 |
| 20260505000016 | 53 | 259 | 8.0 | 20.0 | 0.00 | 0.00 | 0.00 | 42 | 999.5 |
| 20260504234543 | 54 | 303 | 9.0 | 21.0 | 0.00 | 0.00 | 0.00 | 38 | 1007.2 |
| 20260504234508 | 54 | 286 | 9.0 | 21.0 | 0.00 | 0.00 | 0.00 | 39 | 999.4 |
| 20260504233039 | 55 | 246 | 7.0 | 21.0 | 0.00 | 0.00 | 0.00 | 37 | 1007.0 |
| 20260504233007 | 55 | 261 | 7.0 | 21.0 | 0.00 | 0.00 | 0.00 | 37 | 999.2 |
| 20260504231555 | 56 | 219 | 10.0 | 23.0 | 0.00 | 0.00 | 0.00 | 36 | 1006.8 |
| 20260504231509 | 56 | 267 | 10.0 | 23.0 | 0.00 | 0.00 | 0.00 | 37 | 999.0 |
| 20260504230037 | 56 | 272 | 10.0 | 20.0 | 0.00 | 0.00 | 0.00 | 34 | 1006.6 |
| 20260504230006 | 57 | 248 | 11.0 | 19.0 | 0.00 | 0.00 | 0.00 | 34 | 998.7 |
| 20260504224539 | 57 | 294 | 7.0 | 23.0 | 0.00 | 0.00 | 0.00 | 34 | 1006.4 |
| 20260504224506 | 57 | 279 | 7.0 | 23.0 | 0.00 | 0.00 | 0.00 | 34 | 998.4 |